EW2975 Weather Reports


Display with metric or nautical units.
time (UTC)temp
F
wind
direction
speed
MPH
gust
MPH
rain 1hr
in
rain 24hr
in
rain mn
in
humidity
%
barometer
mb
20260507052203 59 40 5.0 12.0 0.00 0.03 0.00 81 1014.8
20260507052104 59 41 6.0 12.0 0.00 0.03 0.00 81 1014.8
20260507052003 59 41 6.0 12.0 0.00 0.03 0.00 81 1014.8
20260507051904 59 41 5.0 11.0 0.00 0.03 0.00 81 1014.8
20260507051804 59 40 5.0 11.0 0.00 0.03 0.00 81 1014.8
20260507051704 59 40 5.0 11.0 0.00 0.03 0.00 81 1014.8
20260507051603 59 42 5.0 11.0 0.00 0.03 0.00 81 1014.7
20260507051504 59 42 5.0 11.0 0.00 0.03 0.00 81 1014.8
20260507051404 59 42 5.0 11.0 0.00 0.03 0.00 81 1014.8
20260507051304 59 43 5.0 11.0 0.00 0.03 0.00 81 1014.7
20260507051104 59 43 5.0 10.0 0.00 0.03 0.00 81 1014.7
20260507051003 59 43 5.0 10.0 0.00 0.03 0.00 81 1014.8
20260507050904 59 43 4.0 10.0 0.00 0.03 0.00 81 1014.8
20260507050803 59 46 4.0 10.0 0.00 0.03 0.00 81 1014.7
20260507050704 60 47 4.0 10.0 0.00 0.03 0.00 81 1014.6
20260507050603 59 45 4.0 10.0 0.00 0.03 0.00 81 1014.6
20260507050504 60 45 4.0 9.0 0.00 0.03 0.00 81 1014.6
20260507050404 60 43 4.0 9.0 0.00 0.03 0.00 81 1014.6
20260507050304 60 42 3.0 9.0 0.00 0.03 0.00 81 1014.5
20260507050103 60 44 4.0 11.0 0.00 0.03 0.00 81 1014.6
20260507050005 60 46 4.0 11.0 0.00 0.03 0.00 81 1014.7
20260507045904 60 47 4.0 11.0 0.00 0.03 0.03 81 1014.6
20260507045803 60 45 5.0 11.0 0.00 0.03 0.03 81 1014.6
20260507045704 60 45 5.0 11.0 0.00 0.03 0.03 81 1014.5
20260507045603 60 44 5.0 11.0 0.00 0.03 0.03 81 1014.6
20260507045505 60 43 5.0 11.0 0.00 0.03 0.03 81 1014.6
20260507045404 60 42 5.0 11.0 0.00 0.03 0.03 81 1014.5
20260507045306 60 43 5.0 11.0 0.00 0.03 0.03 81 1014.5
20260507045205 60 43 5.0 13.0 0.00 0.03 0.03 81 1014.5
20260507045103 60 42 6.0 13.0 0.00 0.03 0.03 81 1014.5
20260507045004 60 40 5.0 13.0 0.00 0.03 0.03 81 1014.3
20260507044903 60 39 6.0 13.0 0.00 0.03 0.03 81 1014.3
20260507044704 60 39 6.0 13.0 0.00 0.03 0.03 81 1014.3
20260507044604 60 40 6.0 13.0 0.00 0.03 0.03 81 1014.3
20260507044504 60 41 6.0 13.0 0.00 0.03 0.03 81 1014.3
20260507044404 60 41 6.0 13.0 0.00 0.03 0.03 81 1014.3
20260507044304 60 40 5.0 13.0 0.00 0.03 0.03 81 1014.3
20260507044105 60 38 5.0 11.0 0.00 0.03 0.03 81 1014.4
20260507044004 60 39 5.0 10.0 0.00 0.03 0.03 81 1014.5
20260507043904 60 40 5.0 10.0 0.00 0.03 0.03 81 1014.5
20260507043703 60 39 4.0 10.0 0.00 0.03 0.03 81 1014.7
20260507043504 60 38 4.0 10.0 0.00 0.03 0.03 81 1014.7
20260507043404 60 39 4.0 10.0 0.00 0.03 0.03 81 1014.7
20260507043304 60 40 4.0 10.0 0.00 0.03 0.03 81 1014.8
20260507043204 60 39 3.0 10.0 0.00 0.03 0.03 81 1014.9
20260507043104 60 38 3.0 10.0 0.00 0.03 0.03 81 1015.0
20260507043004 60 39 3.0 11.0 0.00 0.03 0.03 81 1015.0
20260507042904 60 39 4.0 11.0 0.00 0.03 0.03 81 1015.0
20260507042803 60 40 4.0 11.0 0.00 0.03 0.03 81 1015.0
20260507042704 60 38 4.0 11.0 0.00 0.03 0.03 81 1014.9
20260507042604 60 39 4.0 11.0 0.00 0.03 0.03 81 1014.9
20260507042503 60 39 4.0 11.0 0.00 0.03 0.03 81 1014.9
20260507042404 60 39 4.0 11.0 0.00 0.03 0.03 81 1014.8
20260507042306 60 39 4.0 11.0 0.00 0.03 0.03 81 1014.9
20260507042204 60 40 4.0 11.0 0.00 0.03 0.03 81 1014.8
20260507042003 60 36 4.0 11.0 0.00 0.03 0.03 81 1014.7
20260507041904 60 36 5.0 11.0 0.00 0.03 0.03 81 1014.6
20260507041803 60 33 5.0 11.0 0.00 0.03 0.03 81 1014.7
20260507041704 60 34 5.0 11.0 0.00 0.03 0.03 81 1014.7
20260507041603 60 31 5.0 11.0 0.00 0.03 0.03 80 1014.7
20260507041404 60 28 5.0 11.0 0.00 0.03 0.03 80 1014.6
20260507041204 60 26 5.0 11.0 0.00 0.03 0.03 80 1014.5
20260507041104 60 24 4.0 11.0 0.00 0.03 0.03 80 1014.5
20260507041003 60 23 5.0 11.0 0.00 0.03 0.03 80 1014.5
20260507040904 60 22 5.0 11.0 0.00 0.03 0.03 80 1014.5
20260507040803 60 21 5.0 11.0 0.00 0.03 0.03 80 1014.4
20260507040603 60 22 4.0 11.0 0.00 0.03 0.03 80 1014.4
20260507040504 60 22 4.0 11.0 0.00 0.03 0.03 80 1014.4
20260507040304 60 20 5.0 11.0 0.00 0.03 0.03 80 1014.4
20260507040204 60 19 5.0 11.0 0.00 0.03 0.03 80 1014.4
20260507040003 60 18 5.0 11.0 0.00 0.03 0.03 80 1014.4
20260507035904 60 17 5.0 11.0 0.00 0.03 0.03 80 1014.4
20260507035803 61 16 5.0 10.0 0.00 0.03 0.03 80 1014.4
20260507035704 61 15 5.0 10.0 0.00 0.03 0.03 80 1014.4
20260507035603 61 13 5.0 11.0 0.00 0.03 0.03 80 1014.5
20260507035504 61 12 5.0 11.0 0.00 0.03 0.03 80 1014.5
20260507035403 61 12 5.0 11.0 0.00 0.03 0.03 79 1014.4
20260507035306 61 12 5.0 11.0 0.00 0.03 0.03 79 1014.5
20260507035103 61 13 5.0 11.0 0.00 0.03 0.03 79 1014.5
20260507034803 61 16 5.0 11.0 0.00 0.03 0.03 79 1014.5
20260507034704 61 15 5.0 11.0 0.00 0.03 0.03 79 1014.4
20260507034304 61 16 4.0 9.0 0.00 0.03 0.03 79 1014.6
20260507034203 61 15 4.0 9.0 0.00 0.03 0.03 79 1014.6
20260507034104 61 15 4.0 9.0 0.00 0.03 0.03 79 1014.6
20260507034003 61 12 4.0 11.0 0.00 0.03 0.03 79 1014.6
20260507033904 61 11 4.0 12.0 0.00 0.03 0.03 79 1014.5
20260507033803 61 10 4.0 12.0 0.00 0.03 0.03 79 1014.6
20260507033704 61 11 4.0 12.0 0.00 0.03 0.03 79 1014.5
20260507033603 61 12 5.0 12.0 0.00 0.03 0.03 79 1014.5
20260507033403 61 12 5.0 14.0 0.00 0.03 0.03 79 1014.4
20260507033305 61 11 5.0 14.0 0.00 0.03 0.03 79 1014.4
20260507033203 61 11 6.0 14.0 0.00 0.03 0.03 79 1014.4
20260507033104 61 10 5.0 14.0 0.00 0.03 0.03 79 1014.3
20260507033003 61 10 5.0 14.0 0.00 0.03 0.03 79 1014.3
20260507032803 61 6 6.0 14.0 0.00 0.03 0.03 79 1014.2
20260507032604 61 7 6.0 14.0 0.00 0.03 0.03 79 1014.1
20260507032306 61 4 6.0 13.0 0.00 0.03 0.03 79 1014.2
20260507032205 61 2 5.0 13.0 0.00 0.03 0.03 79 1014.2
20260507032005 61 2 5.0 13.0 0.00 0.03 0.03 79 1014.3
20260507031905 61 1 5.0 13.0 0.00 0.03 0.03 79 1014.3
20260507031806 61 4 5.0 13.0 0.00 0.03 0.03 79 1014.3
20260507031705 61 4 5.0 13.0 0.00 0.03 0.03 79 1014.3
20260507031506 61 7 4.0 13.0 0.00 0.03 0.03 79 1014.3
20260507031405 61 5 4.0 11.0 0.00 0.03 0.03 79 1014.3
20260507031306 61 7 4.0 11.0 0.00 0.03 0.03 79 1014.4
20260507031205 61 7 4.0 11.0 0.00 0.03 0.03 79 1014.3
20260507031106 61 8 4.0 11.0 0.00 0.03 0.03 79 1014.4
20260507031005 61 9 4.0 11.0 0.00 0.03 0.03 79 1014.4
20260507030906 61 10 3.0 11.0 0.00 0.03 0.03 79 1014.4
20260507030805 61 9 3.0 9.0 0.00 0.03 0.03 79 1014.4
20260507030706 61 9 3.0 9.0 0.00 0.03 0.03 79 1014.5
20260507030605 61 8 3.0 9.0 0.00 0.03 0.03 79 1014.5
20260507030506 61 6 3.0 11.0 0.00 0.03 0.03 79 1014.5
20260507030406 61 8 3.0 11.0 0.00 0.03 0.03 79 1014.6
20260507030306 61 8 3.0 11.0 0.00 0.03 0.03 79 1014.5
20260507030205 61 10 3.0 11.0 0.00 0.03 0.03 79 1014.5
20260507030106 61 11 3.0 11.0 0.00 0.03 0.03 79 1014.6
20260507030005 61 9 4.0 11.0 0.00 0.03 0.03 79 1014.6
20260507025906 61 9 4.0 11.0 0.00 0.03 0.03 79 1014.5
20260507025805 61 9 4.0 11.0 0.00 0.03 0.03 79 1014.6
20260507025706 61 8 5.0 11.0 0.00 0.03 0.03 79 1014.5
20260507025605 61 8 5.0 11.0 0.00 0.03 0.03 79 1014.5
20260507025506 61 8 4.0 11.0 0.00 0.03 0.03 79 1014.5
20260507025306 61 7 4.0 11.0 0.00 0.03 0.03 79 1014.4
20260507025105 61 5 5.0 11.0 0.00 0.03 0.03 79 1014.4
20260507024906 61 7 5.0 11.0 0.00 0.03 0.03 79 1014.5
20260507024805 61 7 5.0 11.0 0.00 0.03 0.03 79 1014.4
20260507024705 61 6 5.0 11.0 0.00 0.03 0.03 79 1014.5
20260507024606 61 8 5.0 11.0 0.00 0.03 0.03 79 1014.5
20260507024505 61 9 5.0 11.0 0.00 0.03 0.03 80 1014.5
20260507024405 61 6 5.0 11.0 0.00 0.03 0.03 79 1014.4
20260507024306 61 7 5.0 11.0 0.00 0.03 0.03 79 1014.4
20260507024205 61 6 5.0 11.0 0.00 0.03 0.03 80 1014.5
20260507024105 61 5 5.0 11.0 0.00 0.03 0.03 80 1014.4
20260507023905 61 3 4.0 10.0 0.00 0.03 0.03 80 1014.4
20260507023805 61 5 5.0 10.0 0.00 0.03 0.03 80 1014.4
20260507023706 61 5 5.0 13.0 0.00 0.03 0.03 80 1014.4
20260507023505 61 2 5.0 13.0 0.00 0.03 0.03 80 1014.3
20260507023405 61 4 5.0 13.0 0.00 0.03 0.03 80 1014.3
20260507023305 61 4 4.0 13.0 0.00 0.03 0.03 80 1014.2
20260507023205 61 5 4.0 13.0 0.00 0.03 0.03 80 1014.2
20260507023005 61 7 4.0 13.0 0.00 0.03 0.03 80 1014.2
20260507022906 61 6 4.0 13.0 0.00 0.03 0.03 80 1014.3
20260507022705 61 2 4.0 11.0 0.00 0.03 0.03 80 1014.3
20260507022606 61 359 4.0 11.0 0.00 0.03 0.03 80 1014.3
20260507022405 61 357 4.0 11.0 0.00 0.03 0.03 80 1014.3
20260507022306 61 357 4.0 11.0 0.00 0.03 0.03 80 1014.2
20260507022206 61 356 5.0 11.0 0.00 0.03 0.03 80 1014.2
20260507022105 61 354 5.0 11.0 0.00 0.03 0.03 80 1014.2
20260507021905 61 352 5.0 11.0 0.00 0.03 0.03 80 1014.1
20260507021806 61 351 5.0 10.0 0.00 0.03 0.03 80 1014.2
20260507021705 61 352 5.0 10.0 0.00 0.03 0.03 80 1014.2
20260507021606 61 351 5.0 11.0 0.00 0.03 0.03 80 1014.2
20260507021305 61 352 5.0 11.0 0.00 0.03 0.03 80 1014.0
20260507021205 61 352 5.0 11.0 0.00 0.03 0.03 80 1014.1
20260507021105 61 353 5.0 11.0 0.00 0.03 0.03 80 1014.0
20260507021006 61 354 6.0 12.0 0.00 0.03 0.03 80 1014.0
20260507020905 61 353 6.0 12.0 0.00 0.03 0.03 80 1014.0
20260507020806 61 354 6.0 12.0 0.00 0.03 0.03 80 1013.9
20260507020705 61 354 6.0 12.0 0.00 0.03 0.03 80 1013.9
20260507020606 61 356 6.0 12.0 0.00 0.03 0.03 80 1013.9
20260507020506 61 356 6.0 12.0 0.00 0.03 0.03 80 1013.8
20260507020405 61 356 6.0 12.0 0.00 0.03 0.03 80 1013.7
20260507020205 61 357 6.0 14.0 0.00 0.03 0.03 80 1013.6
20260507020105 61 357 5.0 14.0 0.00 0.03 0.03 80 1013.5
20260507015606 61 355 6.0 14.0 0.00 0.03 0.03 80 1013.3
20260507015306 61 353 6.0 14.0 0.00 0.03 0.03 80 1013.3
20260507015205 61 353 7.0 14.0 0.00 0.03 0.03 80 1013.3
20260507015106 61 353 7.0 14.0 0.00 0.03 0.03 80 1013.3
20260507015005 61 353 7.0 14.0 0.00 0.03 0.03 80 1013.3
20260507014905 61 353 7.0 14.0 0.00 0.03 0.03 80 1013.3
20260507014805 61 353 7.0 14.0 0.00 0.03 0.03 80 1013.2
20260507014705 61 351 6.0 14.0 0.00 0.03 0.03 80 1013.2
20260507014606 61 352 6.0 14.0 0.00 0.03 0.03 80 1013.2
20260507014405 61 353 6.0 14.0 0.00 0.03 0.03 80 1013.1
20260507014105 61 351 5.0 12.0 0.00 0.03 0.03 80 1013.2
20260507014006 61 351 6.0 12.0 0.00 0.03 0.03 80 1013.2
20260507013905 61 352 6.0 12.0 0.00 0.03 0.03 80 1013.1
20260507013806 61 350 6.0 12.0 0.00 0.03 0.03 80 1013.1
20260507013705 61 349 6.0 12.0 0.00 0.03 0.03 80 1013.1
20260507013505 61 349 6.0 12.0 0.00 0.03 0.03 80 1013.0
20260507013306 61 350 6.0 12.0 0.00 0.03 0.03 80 1013.0
20260507013205 61 351 6.0 12.0 0.00 0.03 0.03 80 1013.0
20260507013005 61 351 6.0 12.0 0.00 0.03 0.03 80 1013.0
20260507012905 61 350 6.0 11.0 0.00 0.03 0.03 80 1013.0
20260507012805 61 350 5.0 11.0 0.00 0.03 0.03 80 1013.0
20260507012606 61 356 6.0 11.0 0.00 0.03 0.03 80 1012.9
20260507012505 61 356 6.0 12.0 0.00 0.03 0.03 80 1012.8
20260507012406 61 356 6.0 12.0 0.00 0.03 0.03 80 1012.8
20260507012306 61 358 6.0 12.0 0.00 0.03 0.03 80 1012.8
20260507012205 61 357 6.0 12.0 0.00 0.03 0.03 80 1012.8
20260507012106 61 358 6.0 12.0 0.00 0.03 0.03 80 1012.7
20260507012005 61 1 6.0 12.0 0.00 0.03 0.03 80 1012.7
20260507011905 61 2 5.0 12.0 0.00 0.03 0.03 80 1012.6
20260507011805 61 5 5.0 12.0 0.00 0.03 0.03 80 1012.6
20260507011705 61 4 5.0 12.0 0.00 0.03 0.03 80 1012.6
20260507011605 61 4 5.0 12.0 0.00 0.03 0.03 80 1012.6
20260507011505 61 5 4.0 12.0 0.00 0.03 0.03 80 1012.5
20260507011405 61 6 4.0 10.0 0.00 0.03 0.03 80 1012.5
20260507011205 61 4 4.0 10.0 0.00 0.03 0.03 80 1012.5
20260507011106 61 4 4.0 10.0 0.00 0.03 0.03 80 1012.5
20260507011005 61 1 3.0 10.0 0.00 0.03 0.03 80 1012.5
20260507010906 61 1 4.0 9.0 0.00 0.03 0.03 80 1012.5
20260507010805 61 355 4.0 10.0 0.00 0.03 0.03 80 1012.5
20260507010705 61 352 5.0 10.0 0.00 0.03 0.03 80 1012.4
20260507010606 61 348 5.0 10.0 0.00 0.03 0.03 80 1012.4
20260507010406 61 340 6.0 10.0 0.00 0.03 0.03 80 1012.3
20260507010305 61 338 6.0 10.0 0.00 0.03 0.03 80 1012.4
20260507010205 61 336 6.0 10.0 0.00 0.03 0.03 79 1012.3
20260507010105 61 334 6.0 10.0 0.00 0.03 0.03 79 1012.3
20260507010005 61 333 6.0 10.0 0.00 0.03 0.03 79 1012.5
20260507005905 61 331 5.0 10.0 0.00 0.03 0.03 80 1012.5
20260507005806 62 333 5.0 10.0 0.00 0.03 0.03 80 1012.6
20260507005705 62 335 5.0 10.0 0.00 0.03 0.03 80 1012.6
20260507005605 62 336 4.0 10.0 0.00 0.03 0.03 80 1012.7
20260507005505 62 338 4.0 10.0 0.00 0.03 0.03 80 1012.6
20260507005306 62 341 4.0 9.0 0.00 0.03 0.03 80 1012.5
20260507005205 62 342 4.0 9.0 0.00 0.03 0.03 80 1012.4
20260507005106 62 345 4.0 9.0 0.00 0.03 0.03 80 1012.3
20260507005006 62 347 5.0 9.0 0.00 0.03 0.03 80 1012.2
20260507004805 62 342 5.0 9.0 0.00 0.03 0.03 80 1012.1
20260507004705 62 339 5.0 9.0 0.00 0.03 0.03 80 1012.0
20260507004605 62 337 5.0 9.0 0.00 0.03 0.03 80 1012.0
20260507004505 62 338 5.0 9.0 0.00 0.03 0.03 80 1012.0
20260507004405 62 340 5.0 9.0 0.00 0.03 0.03 80 1012.0
20260507004306 61 343 5.0 9.0 0.00 0.03 0.03 80 1012.0
20260507004205 62 343 5.0 9.0 0.00 0.03 0.03 80 1012.1
20260507004105 61 344 5.0 9.0 0.00 0.03 0.03 80 1012.2
20260507004005 61 343 5.0 9.0 0.00 0.03 0.03 80 1012.3
20260507003906 61 345 5.0 9.0 0.00 0.03 0.03 80 1012.3
20260507003705 61 347 5.0 9.0 0.00 0.03 0.03 80 1012.3
20260507003605 61 348 5.0 9.0 0.00 0.03 0.03 80 1012.3
20260507003506 61 348 5.0 9.0 0.00 0.03 0.03 80 1012.1
20260507003405 61 346 5.0 9.0 0.00 0.03 0.03 80 1012.1
20260507003305 61 343 5.0 9.0 0.00 0.03 0.03 80 1012.1
20260507003205 61 341 5.0 9.0 0.00 0.03 0.03 80 1012.1
20260507003105 61 342 5.0 9.0 0.00 0.03 0.03 80 1012.1
20260507003005 61 342 5.0 9.0 0.00 0.03 0.03 80 1012.1
20260507002904 61 342 5.0 9.0 0.00 0.03 0.03 80 1012.1
20260507002805 61 341 5.0 9.0 0.00 0.03 0.03 80 1012.1
20260507002705 61 343 5.0 9.0 0.00 0.03 0.03 80 1012.1
20260507002505 61 345 4.0 8.0 0.00 0.03 0.03 80 1012.1
20260507002306 61 346 4.0 8.0 0.00 0.03 0.03 80 1012.2
20260507002206 61 348 4.0 8.0 0.00 0.03 0.03 80 1012.2
20260507002105 61 346 4.0 8.0 0.00 0.03 0.03 80 1012.2
20260507002005 61 344 3.0 8.0 0.00 0.03 0.03 80 1012.2
20260507001905 61 345 3.0 8.0 0.00 0.03 0.03 80 1012.2
20260507001805 61 343 3.0 8.0 0.00 0.03 0.03 80 1012.2
20260507001605 61 342 3.0 6.0 0.00 0.03 0.03 80 1012.2
20260507001405 61 347 3.0 9.0 0.00 0.03 0.03 80 1012.1
20260507001205 61 353 4.0 11.0 0.00 0.03 0.03 80 1012.1
20260507001105 61 357 4.0 11.0 0.00 0.03 0.03 80 1012.1
20260507001006 61 2 5.0 11.0 0.00 0.03 0.03 80 1012.0
20260507000805 61 2 5.0 11.0 0.00 0.03 0.03 80 1012.0
20260507000705 61 4 6.0 13.0 0.00 0.03 0.03 80 1012.0
20260507000605 61 4 6.0 13.0 0.00 0.03 0.03 80 1011.8
20260507000505 61 5 6.0 13.0 0.00 0.03 0.03 80 1011.7
20260507000406 61 3 6.0 13.0 0.00 0.03 0.03 80 1011.6
20260507000306 61 4 6.0 13.0 0.00 0.03 0.03 80 1011.5
20260507000205 61 2 6.0 13.0 0.00 0.03 0.03 80 1011.6
20260507000006 61 356 6.0 13.0 0.00 0.03 0.03 80 1011.6
20260506235806 61 358 6.0 13.0 0.00 0.03 0.03 80 1011.7
20260506235705 61 357 6.0 12.0 0.00 0.03 0.03 80 1011.8
20260506235605 61 357 6.0 12.0 0.00 0.03 0.03 80 1011.9
20260506235505 61 356 6.0 12.0 0.00 0.03 0.03 80 1011.9
20260506235405 61 355 6.0 12.0 0.00 0.03 0.03 80 1012.0
20260506235306 61 354 6.0 12.0 0.00 0.03 0.03 80 1011.9
20260506235205 61 355 6.0 12.0 0.00 0.03 0.03 80 1011.9
20260506235105 61 356 6.0 11.0 0.00 0.03 0.03 80 1011.7
20260506235005 61 357 6.0 11.0 0.00 0.03 0.03 80 1011.6
20260506234805 61 347 6.0 12.0 0.00 0.03 0.03 80 1011.6
20260506234605 61 342 6.0 12.0 0.00 0.03 0.03 80 1011.8
20260506234505 61 340 6.0 12.0 0.00 0.03 0.03 79 1011.9
20260506234405 61 339 6.0 12.0 0.00 0.03 0.03 79 1011.9
20260506234305 61 335 6.0 12.0 0.00 0.03 0.03 79 1012.0
20260506234206 61 332 6.0 12.0 0.00 0.03 0.03 79 1011.9
20260506234105 61 331 5.0 12.0 0.00 0.03 0.03 79 1011.9
20260506234006 61 330 5.0 12.0 0.00 0.03 0.03 80 1011.9
20260506233905 61 330 5.0 12.0 0.00 0.03 0.03 80 1012.0
20260506233805 61 333 5.0 10.0 0.00 0.03 0.03 80 1012.0
20260506233705 61 331 5.0 10.0 0.00 0.03 0.03 80 1012.1
20260506233605 61 331 5.0 10.0 0.00 0.03 0.03 80 1012.1
20260506233504 61 332 5.0 10.0 0.00 0.03 0.03 80 1012.1
20260506233405 61 333 6.0 11.0 0.00 0.03 0.03 80 1012.1
20260506233305 61 335 6.0 11.0 0.00 0.03 0.03 80 1012.0
20260506233205 60 334 7.0 11.0 0.00 0.03 0.03 80 1011.9
20260506233105 60 337 7.0 11.0 0.00 0.03 0.03 80 1012.0
20260506233006 60 336 7.0 11.0 0.00 0.03 0.03 80 1012.0
20260506232905 60 336 7.0 11.0 0.00 0.03 0.03 80 1011.9
20260506232705 60 337 7.0 11.0 0.00 0.03 0.03 80 1011.9
20260506232606 60 338 7.0 11.0 0.00 0.03 0.03 80 1011.9
20260506232505 60 338 6.0 11.0 0.00 0.03 0.03 80 1011.8
20260506232405 60 339 6.0 11.0 0.00 0.03 0.03 80 1011.8
20260506232205 60 340 6.0 10.0 0.00 0.03 0.03 80 1011.9
20260506232104 60 338 6.0 10.0 0.00 0.03 0.03 80 1011.9
20260506232005 60 338 5.0 10.0 0.00 0.03 0.03 80 1011.9
20260506231905 60 336 5.0 10.0 0.00 0.03 0.03 80 1012.0
20260506231805 60 333 5.0 10.0 0.00 0.03 0.03 80 1012.0
20260506231705 60 333 5.0 10.0 0.00 0.03 0.03 80 1012.1
20260506231606 60 335 5.0 10.0 0.00 0.03 0.03 80 1012.1
20260506231505 60 336 6.0 10.0 0.00 0.03 0.03 80 1012.1
20260506231405 60 338 6.0 10.0 0.00 0.03 0.03 80 1011.9
20260506231305 60 339 6.0 11.0 0.00 0.03 0.03 80 1011.9
20260506231205 60 338 6.0 11.0 0.00 0.03 0.03 80 1011.9
20260506231105 60 338 6.0 11.0 0.00 0.03 0.03 81 1012.0
20260506231005 60 340 6.0 11.0 0.00 0.03 0.03 81 1012.0
20260506230905 60 343 6.0 11.0 0.00 0.03 0.03 81 1012.0
20260506230806 60 345 6.0 11.0 0.00 0.03 0.03 80 1011.9
20260506230605 60 346 5.0 11.0 0.00 0.03 0.03 80 1011.8
20260506230205 60 346 5.0 10.0 0.00 0.03 0.03 80 1011.9
20260506230104 60 343 5.0 10.0 0.00 0.03 0.03 80 1012.0
20260506230005 60 339 5.0 10.0 0.00 0.03 0.03 80 1012.1
20260506225906 60 334 5.0 10.0 0.00 0.03 0.03 80 1012.0
20260506225805 60 333 5.0 10.0 0.00 0.03 0.03 80 1011.9
20260506225605 60 331 5.0 10.0 0.00 0.03 0.03 80 1011.9
20260506225505 60 331 5.0 10.0 0.00 0.03 0.03 80 1011.9
20260506225405 60 331 6.0 10.0 0.00 0.03 0.03 80 1012.0
20260506225306 60 331 6.0 10.0 0.00 0.03 0.03 80 1012.0
20260506225205 60 329 6.0 10.0 0.00 0.03 0.03 80 1012.0
20260506225105 60 330 6.0 10.0 0.00 0.03 0.03 80 1012.0
20260506225005 60 332 6.0 11.0 0.00 0.03 0.03 80 1012.0
20260506224905 60 334 6.0 11.0 0.00 0.03 0.03 80 1011.9
20260506224806 60 336 6.0 11.0 0.00 0.03 0.03 80 1011.9
20260506224705 60 333 6.0 11.0 0.00 0.03 0.03 80 1011.9
20260506224606 60 335 6.0 13.0 0.00 0.03 0.03 80 1011.8
20260506224405 60 336 6.0 13.0 0.00 0.03 0.03 80 1011.7
20260506224305 60 338 6.0 13.0 0.00 0.03 0.03 79 1011.6
20260506224205 60 343 6.0 13.0 0.00 0.03 0.03 80 1011.5
20260506224105 60 345 6.0 13.0 0.00 0.03 0.03 80 1011.5
20260506223905 60 346 6.0 13.0 0.00 0.03 0.03 80 1011.5
20260506223805 60 347 6.0 13.0 0.00 0.03 0.03 80 1011.5
20260506223705 60 351 6.0 13.0 0.00 0.03 0.03 80 1011.4
20260506223505 60 354 6.0 13.0 0.00 0.03 0.03 80 1011.4
20260506223405 60 354 6.0 13.0 0.00 0.03 0.03 80 1011.3
20260506223205 60 357 6.0 12.0 0.00 0.03 0.03 80 1011.4
20260506223105 60 357 6.0 12.0 0.00 0.03 0.03 80 1011.4
20260506223005 60 1 6.0 12.0 0.00 0.03 0.03 80 1011.4
20260506222905 60 1 6.0 12.0 0.00 0.03 0.03 80 1011.5
20260506222705 60 353 6.0 11.0 0.00 0.03 0.03 80 1011.6
20260506222605 60 350 6.0 11.0 0.00 0.03 0.03 80 1011.6
20260506222505 60 346 6.0 11.0 0.00 0.03 0.03 80 1011.7
20260506222405 60 343 7.0 13.0 0.00 0.03 0.03 80 1011.7
20260506222306 60 340 7.0 13.0 0.00 0.03 0.03 80 1011.8
20260506222205 60 334 7.0 13.0 0.00 0.03 0.03 80 1011.7
20260506222006 60 329 6.0 13.0 0.00 0.03 0.03 80 1011.8
20260506221905 60 327 6.0 13.0 0.00 0.03 0.03 80 1011.8
20260506221805 60 326 6.0 13.0 0.00 0.03 0.03 80 1011.8
20260506221705 60 327 7.0 13.0 0.00 0.03 0.03 80 1011.7
20260506221605 60 327 6.0 13.0 0.00 0.03 0.03 80 1011.7
20260506221505 60 327 7.0 13.0 0.00 0.03 0.03 80 1011.7
20260506221406 60 327 7.0 13.0 0.00 0.03 0.03 80 1011.7
20260506221205 60 326 7.0 13.0 0.00 0.03 0.03 80 1011.8
20260506221105 60 325 7.0 13.0 0.00 0.03 0.03 81 1011.8
20260506220905 60 327 6.0 13.0 0.00 0.03 0.03 80 1011.9
20260506220805 60 329 6.0 13.0 0.00 0.03 0.03 80 1011.7
20260506220605 60 333 6.0 13.0 0.00 0.03 0.03 80 1011.8
20260506220505 60 336 6.0 13.0 0.00 0.03 0.03 80 1011.8
20260506220406 60 335 5.0 13.0 0.00 0.03 0.03 80 1011.8
20260506220305 60 339 5.0 12.0 0.00 0.03 0.03 80 1011.8
20260506220205 60 341 6.0 12.0 0.00 0.03 0.03 80 1011.7
20260506220105 60 343 6.0 12.0 0.00 0.03 0.03 81 1011.7
20260506215905 60 342 7.0 12.0 0.00 0.03 0.03 81 1011.7
20260506215805 60 342 7.0 12.0 0.00 0.03 0.03 81 1011.8
20260506215705 60 340 7.0 12.0 0.00 0.03 0.03 81 1011.8
20260506215606 60 337 8.0 12.0 0.00 0.03 0.03 81 1011.9
20260506215406 60 337 8.0 14.0 0.00 0.03 0.03 81 1012.0
20260506215306 60 337 8.0 14.0 0.00 0.03 0.03 81 1012.0
20260506215206 60 336 8.0 14.0 0.00 0.03 0.03 81 1012.0
20260506215105 60 333 8.0 14.0 0.00 0.03 0.03 81 1012.0
20260506214905 60 329 8.0 14.0 0.00 0.03 0.03 81 1011.9
20260506214705 60 327 7.0 14.0 0.00 0.03 0.03 81 1012.0
20260506214605 60 327 7.0 14.0 0.00 0.03 0.03 81 1012.0
20260506214405 60 325 7.0 13.0 0.00 0.03 0.03 81 1011.9
20260506214305 60 322 7.0 13.0 0.00 0.03 0.03 81 1011.8
20260506214205 60 323 7.0 13.0 0.00 0.03 0.03 81 1011.9
20260506214106 60 324 7.0 13.0 0.00 0.03 0.03 81 1011.9
20260506214005 60 325 7.0 13.0 0.00 0.03 0.03 81 1012.0
20260506213905 60 324 7.0 13.0 0.00 0.03 0.03 81 1012.2
20260506213605 60 322 7.0 13.0 0.00 0.03 0.03 81 1012.1
20260506213405 60 320 8.0 14.0 0.00 0.03 0.03 81 1012.0
20260506213205 60 320 8.0 14.0 0.00 0.03 0.03 81 1011.9
20260506213105 60 320 8.0 14.0 0.00 0.03 0.03 81 1012.0
20260506213005 60 321 8.0 14.0 0.00 0.03 0.03 81 1012.0
20260506212905 60 321 8.0 14.0 0.00 0.03 0.03 81 1012.0
20260506212805 60 321 8.0 14.0 0.00 0.03 0.03 81 1012.0
20260506212705 60 321 8.0 14.0 0.00 0.03 0.03 81 1012.0
20260506212606 60 322 8.0 14.0 0.00 0.03 0.03 81 1011.9
20260506212506 60 322 7.0 14.0 0.00 0.03 0.03 81 1011.9
20260506212405 60 323 7.0 14.0 0.00 0.03 0.03 81 1011.9
20260506212307 60 323 7.0 14.0 0.00 0.03 0.03 80 1011.9
20260506212205 60 323 7.0 14.0 0.00 0.03 0.03 81 1011.9
20260506212105 60 324 7.0 14.0 0.00 0.03 0.03 81 1011.9
20260506211806 60 322 7.0 13.0 0.00 0.03 0.03 81 1011.9
20260506211605 60 326 7.0 13.0 0.00 0.03 0.03 82 1011.9
20260506211505 60 328 7.0 13.0 0.00 0.03 0.03 82 1011.9
20260506211406 60 328 7.0 13.0 0.00 0.03 0.03 82 1011.9
20260506211304 60 328 7.0 13.0 0.00 0.03 0.03 82 1011.9
20260506211205 60 328 7.0 13.0 0.00 0.03 0.03 81 1011.9
20260506211104 59 327 7.0 13.0 0.00 0.03 0.03 82 1011.9
20260506211005 59 327 7.0 13.0 0.00 0.03 0.03 82 1011.9
20260506210905 59 327 8.0 14.0 0.00 0.03 0.03 82 1011.9
20260506210805 59 326 8.0 14.0 0.00 0.03 0.03 81 1011.9
20260506210705 59 325 8.0 14.0 0.00 0.03 0.03 81 1011.9
20260506210505 59 320 8.0 14.0 0.00 0.03 0.03 82 1012.0
20260506210305 59 318 8.0 14.0 0.00 0.03 0.03 82 1012.1
20260506210005 59 316 8.0 14.0 0.00 0.03 0.03 82 1012.2
20260506205905 59 317 8.0 14.0 0.00 0.03 0.03 82 1012.3
20260506205804 59 317 8.0 14.0 0.00 0.03 0.03 82 1012.3
20260506205705 59 317 8.0 14.0 0.00 0.03 0.03 82 1012.3
20260506205605 59 316 8.0 14.0 0.00 0.03 0.03 82 1012.4
20260506205405 59 318 8.0 14.0 0.00 0.03 0.03 82 1012.2
20260506205306 59 320 8.0 14.0 0.00 0.03 0.03 82 1012.2
20260506205205 59 323 7.0 14.0 0.00 0.03 0.03 82 1012.2
20260506205104 59 327 7.0 14.0 0.00 0.03 0.03 82 1012.2
20260506205005 59 332 7.0 13.0 0.00 0.03 0.03 82 1012.2
20260506204906 59 334 7.0 13.0 0.00 0.03 0.03 82 1012.1
20260506204805 59 336 7.0 13.0 0.00 0.03 0.03 82 1012.1
20260506204704 59 339 7.0 13.0 0.00 0.03 0.03 82 1012.0
20260506204605 59 341 7.0 12.0 0.00 0.03 0.03 82 1012.1
20260506204504 59 344 7.0 12.0 0.00 0.03 0.03 82 1012.0
20260506204405 59 343 7.0 12.0 0.00 0.03 0.03 82 1012.0
20260506204304 59 342 7.0 12.0 0.00 0.03 0.03 82 1012.0
20260506204205 59 339 7.0 12.0 0.00 0.03 0.03 82 1012.1
20260506204105 59 334 8.0 13.0 0.00 0.03 0.03 82 1012.1
20260506204005 59 330 8.0 17.0 0.00 0.03 0.03 82 1012.2
20260506203905 59 328 8.0 17.0 0.00 0.03 0.03 82 1012.2
20260506203806 59 328 8.0 17.0 0.00 0.03 0.03 82 1012.2
20260506203504 59 328 8.0 17.0 0.00 0.03 0.03 83 1012.2
20260506203405 59 328 9.0 17.0 0.00 0.03 0.03 83 1012.2
20260506202905 59 332 9.0 16.0 0.00 0.03 0.03 83 1012.2
20260506202805 59 330 10.0 18.0 0.00 0.03 0.03 83 1012.2
20260506202704 59 328 10.0 18.0 0.00 0.03 0.03 83 1012.3
20260506202605 58 328 10.0 18.0 0.00 0.03 0.03 83 1012.3
20260506202505 58 328 9.0 18.0 0.00 0.03 0.03 82 1012.4
20260506202405 58 327 9.0 18.0 0.00 0.03 0.03 82 1012.4
20260506202306 59 325 9.0 18.0 0.00 0.03 0.03 82 1012.4
20260506202205 59 323 9.0 18.0 0.00 0.03 0.03 82 1012.4
20260506202105 59 321 9.0 18.0 0.00 0.03 0.03 82 1012.4
20260506202005 59 320 9.0 18.0 0.00 0.03 0.03 82 1012.4
20260506201905 59 319 9.0 18.0 0.00 0.03 0.03 82 1012.4
20260506201806 59 319 9.0 14.0 0.00 0.03 0.03 82 1012.3
20260506201704 59 318 9.0 14.0 0.00 0.03 0.03 82 1012.4
20260506201605 59 318 9.0 14.0 0.00 0.03 0.03 82 1012.4
20260506201404 59 319 9.0 14.0 0.00 0.03 0.03 82 1012.3
20260506201305 59 320 9.0 14.0 0.00 0.03 0.03 82 1012.3
20260506201205 59 322 9.0 14.0 0.00 0.03 0.03 82 1012.3
20260506201104 59 325 9.0 14.0 0.00 0.03 0.03 82 1012.3
20260506201005 59 328 8.0 14.0 0.00 0.03 0.03 82 1012.3
20260506200904 59 331 8.0 14.0 0.00 0.03 0.03 82 1012.2
20260506200805 59 333 8.0 14.0 0.00 0.03 0.03 82 1012.3
20260506200705 59 335 8.0 14.0 0.00 0.03 0.03 82 1012.3
20260506200605 59 335 8.0 14.0 0.00 0.03 0.03 82 1012.3
20260506200405 59 340 8.0 16.0 0.00 0.03 0.03 82 1012.3
20260506200305 59 342 8.0 16.0 0.00 0.03 0.03 82 1012.3
20260506200105 59 344 8.0 16.0 0.00 0.03 0.03 82 1012.3
20260506200005 59 344 7.0 16.0 0.00 0.03 0.03 82 1012.4
20260506195904 59 343 7.0 16.0 0.00 0.03 0.03 81 1012.5
20260506195805 59 343 7.0 16.0 0.00 0.03 0.03 82 1012.5
20260506195705 59 342 7.0 16.0 0.00 0.03 0.03 81 1012.5
20260506195605 59 342 7.0 16.0 0.00 0.03 0.03 81 1012.5
20260506195505 59 338 7.0 16.0 0.00 0.03 0.03 81 1012.5
20260506195404 60 341 7.0 11.0 0.00 0.03 0.03 81 1012.4
20260506195306 60 340 7.0 12.0 0.00 0.03 0.03 81 1012.4
20260506195204 60 336 7.0 13.0 0.00 0.03 0.03 82 1012.4
20260506195006 60 331 8.0 14.0 0.00 0.03 0.03 82 1012.3
20260506194905 59 331 9.0 14.0 0.00 0.03 0.03 82 1012.4
20260506194805 59 329 9.0 14.0 0.00 0.03 0.03 82 1012.4
20260506194705 59 328 8.0 14.0 0.00 0.03 0.03 82 1012.3
20260506194505 59 331 9.0 14.0 0.00 0.03 0.03 81 1012.4
20260506194405 59 328 9.0 14.0 0.00 0.03 0.03 82 1012.3
20260506194305 59 328 9.0 14.0 0.00 0.03 0.03 82 1012.2
20260506194205 59 328 9.0 14.0 0.00 0.03 0.03 81 1012.2
20260506194105 59 329 8.0 14.0 0.00 0.03 0.03 81 1012.3
20260506194005 59 330 8.0 14.0 0.00 0.03 0.03 82 1012.3
20260506193905 59 328 8.0 13.0 0.00 0.03 0.03 82 1012.3
20260506193805 59 329 8.0 13.0 0.00 0.03 0.03 82 1012.3
20260506193605 59 332 8.0 13.0 0.00 0.03 0.03 81 1012.3
20260506193406 59 334 9.0 15.0 0.00 0.03 0.03 81 1012.3
20260506193305 59 332 9.0 17.0 0.00 0.03 0.03 81 1012.3
20260506193005 59 330 9.0 17.0 0.00 0.03 0.03 81 1012.3
20260506192905 59 330 9.0 17.0 0.00 0.03 0.03 82 1012.4
20260506192805 59 331 9.0 17.0 0.00 0.03 0.03 82 1012.4
20260506192704 59 331 8.0 17.0 0.00 0.03 0.03 82 1012.5
20260506192504 59 331 8.0 17.0 0.00 0.03 0.03 81 1012.5
20260506192405 59 331 7.0 17.0 0.00 0.03 0.03 81 1012.5
20260506192306 59 334 7.0 17.0 0.00 0.03 0.03 82 1012.5
20260506192205 59 336 7.0 14.0 0.00 0.03 0.03 81 1012.5
20260506192105 59 336 7.0 15.0 0.00 0.03 0.03 81 1012.5
20260506192005 59 341 7.0 15.0 0.00 0.03 0.03 82 1012.4
20260506191905 59 342 7.0 15.0 0.00 0.03 0.03 81 1012.4
20260506191805 59 339 8.0 16.0 0.00 0.03 0.03 81 1012.5
20260506191705 59 336 8.0 16.0 0.00 0.03 0.03 81 1012.5
20260506191505 59 334 9.0 16.0 0.00 0.03 0.03 82 1012.5
20260506191205 59 328 9.0 17.0 0.00 0.03 0.03 81 1012.5
20260506191104 59 328 10.0 17.0 0.00 0.03 0.03 81 1012.5
20260506191005 59 325 10.0 17.0 0.00 0.03 0.03 82 1012.5
20260506190905 59 327 9.0 17.0 0.00 0.03 0.03 81 1012.3
20260506190805 59 330 9.0 17.0 0.00 0.03 0.03 81 1012.3
20260506190705 59 334 9.0 17.0 0.00 0.03 0.03 81 1012.3
20260506190604 60 337 9.0 17.0 0.00 0.03 0.03 81 1012.3
20260506190505 60 338 9.0 17.0 0.00 0.03 0.03 81 1012.3
20260506190404 60 341 9.0 16.0 0.00 0.03 0.03 81 1012.3
20260506190104 60 350 8.0 14.0 0.00 0.03 0.03 81 1012.4
20260506190006 60 353 9.0 14.0 0.00 0.03 0.03 81 1012.4
20260506185904 60 352 9.0 14.0 0.00 0.03 0.03 81 1012.4
20260506185806 60 352 9.0 14.0 0.00 0.03 0.03 80 1012.5
20260506185705 60 348 9.0 14.0 0.00 0.03 0.03 81 1012.4
20260506185604 60 347 9.0 14.0 0.00 0.03 0.03 80 1012.5
20260506185505 60 344 8.0 14.0 0.00 0.03 0.03 81 1012.5
20260506185404 60 345 8.0 14.0 0.00 0.03 0.03 81 1012.4
20260506185306 60 346 8.0 14.0 0.00 0.03 0.03 81 1012.4
20260506185104 60 347 8.0 14.0 0.00 0.03 0.03 81 1012.4
20260506185005 60 346 8.0 14.0 0.00 0.03 0.03 81 1012.4
20260506184904 60 347 8.0 14.0 0.00 0.03 0.03 81 1012.4
20260506184805 60 348 8.0 14.0 0.00 0.03 0.03 82 1012.3
20260506184704 60 351 8.0 14.0 0.00 0.03 0.03 82 1012.3
20260506184605 60 354 8.0 14.0 0.00 0.03 0.03 81 1012.3
20260506184505 60 359 8.0 14.0 0.00 0.03 0.03 81 1012.2
20260506184305 60 358 8.0 15.0 0.00 0.03 0.03 82 1012.2
20260506183905 60 358 8.0 15.0 0.00 0.03 0.03 82 1012.2
20260506183705 60 352 8.0 15.0 0.00 0.03 0.03 82 1012.0
20260506183604 60 348 8.0 18.0 0.00 0.03 0.03 82 1012.0
20260506183505 60 346 8.0 18.0 0.00 0.03 0.03 82 1012.0
20260506183404 60 343 8.0 18.0 0.00 0.03 0.03 82 1012.1
20260506183305 60 343 8.0 18.0 0.00 0.03 0.03 82 1012.1
20260506183204 60 343 9.0 18.0 0.00 0.03 0.03 82 1012.1
20260506183006 60 342 9.0 18.0 0.00 0.03 0.03 82 1012.1
20260506182904 60 341 9.0 18.0 0.00 0.03 0.03 82 1012.1
20260506182805 60 341 8.0 18.0 0.00 0.03 0.03 82 1012.2
20260506182705 60 345 8.0 18.0 0.00 0.03 0.03 83 1012.2
20260506182604 60 346 8.0 14.0 0.00 0.03 0.03 83 1012.2
20260506182306 60 343 9.0 17.0 0.00 0.03 0.03 82 1012.3
20260506182205 60 340 9.0 17.0 0.00 0.03 0.03 82 1012.3
20260506182104 60 339 9.0 17.0 0.00 0.03 0.03 82 1012.4
20260506182005 60 341 9.0 17.0 0.00 0.03 0.03 82 1012.4
20260506181904 60 341 9.0 17.0 0.00 0.03 0.03 82 1012.3
20260506181805 60 344 9.0 17.0 0.00 0.03 0.03 82 1012.4
20260506181704 60 341 9.0 17.0 0.00 0.03 0.03 82 1012.4
20260506181605 60 340 9.0 17.0 0.00 0.03 0.03 82 1012.4
20260506181305 61 336 9.0 15.0 0.00 0.03 0.03 81 1012.6
20260506181205 61 335 9.0 15.0 0.00 0.03 0.03 81 1012.5
20260506181105 61 333 8.0 15.0 0.00 0.03 0.03 81 1012.5
20260506181005 61 330 8.0 15.0 0.00 0.03 0.03 81 1012.5
20260506180905 61 327 8.0 15.0 0.00 0.03 0.03 81 1012.5
20260506180805 61 324 7.0 14.0 0.00 0.03 0.03 81 1012.5
20260506180705 62 323 7.0 13.0 0.00 0.03 0.03 81 1012.5
20260506180604 62 322 7.0 13.0 0.00 0.03 0.03 81 1012.4
20260506180505 62 321 6.0 12.0 0.00 0.03 0.03 81 1012.4
20260506180404 62 319 6.0 12.0 0.00 0.03 0.03 81 1012.4
20260506180305 62 318 7.0 12.0 0.00 0.03 0.03 81 1012.3
20260506180105 62 315 7.0 13.0 0.00 0.03 0.03 82 1012.2
20260506180006 62 314 7.0 13.0 0.00 0.03 0.03 82 1012.1
20260506175905 62 313 7.0 13.0 0.00 0.03 0.03 82 1012.2
20260506175805 62 311 8.0 13.0 0.00 0.03 0.03 82 1012.1
20260506175704 62 311 8.0 13.0 0.00 0.03 0.03 82 1012.2
20260506175605 62 312 7.0 13.0 0.00 0.03 0.03 81 1012.2
20260506175507 62 313 7.0 13.0 0.00 0.03 0.03 81 1012.2
20260506175404 62 316 7.0 13.0 0.00 0.03 0.03 81 1012.1
20260506175306 62 320 7.0 13.0 0.00 0.03 0.03 81 1012.1
20260506175205 62 325 7.0 13.0 0.00 0.03 0.03 81 1012.1
20260506175005 63 330 7.0 13.0 0.00 0.03 0.03 81 1012.1
20260506174904 63 332 6.0 13.0 0.00 0.03 0.03 81 1012.2
20260506174805 63 337 6.0 13.0 0.00 0.03 0.03 81 1012.1
20260506174704 63 342 7.0 12.0 0.00 0.03 0.03 81 1012.1
20260506174604 63 344 7.0 12.0 0.00 0.03 0.03 81 1012.1
20260506174404 63 346 8.0 14.0 0.00 0.03 0.03 80 1012.1
20260506174204 63 345 8.0 14.0 0.00 0.03 0.03 81 1012.0
20260506174105 63 346 8.0 14.0 0.00 0.03 0.03 81 1011.9
20260506174005 63 348 8.0 14.0 0.00 0.03 0.03 81 1011.9
20260506173904 63 349 8.0 14.0 0.00 0.03 0.03 80 1011.8
20260506173805 63 347 9.0 16.0 0.00 0.03 0.03 80 1011.8
20260506173704 63 344 9.0 16.0 0.00 0.03 0.03 80 1011.8
20260506173605 63 340 9.0 16.0 0.00 0.03 0.03 80 1011.8
20260506173505 63 340 9.0 18.0 0.00 0.03 0.03 80 1011.8
20260506173405 64 336 9.0 18.0 0.00 0.03 0.03 79 1011.8
20260506173305 64 334 9.0 18.0 0.00 0.03 0.03 80 1011.9
20260506173205 64 331 9.0 18.0 0.00 0.03 0.03 80 1011.9
20260506173105 64 327 9.0 18.0 0.00 0.03 0.03 80 1011.8
20260506173005 64 324 8.0 18.0 0.00 0.03 0.03 79 1011.8
20260506172905 64 321 8.0 18.0 0.00 0.03 0.03 79 1011.8
20260506172804 65 322 8.0 18.0 0.00 0.03 0.03 81 1011.7
20260506172705 65 323 7.0 18.0 0.00 0.03 0.03 80 1011.8
20260506172604 65 324 7.0 18.0 0.00 0.03 0.03 81 1011.8
20260506172504 65 323 6.0 12.0 0.00 0.03 0.03 80 1011.8
20260506172405 65 322 6.0 12.0 0.00 0.03 0.03 80 1011.8
20260506172307 65 323 6.0 12.0 0.00 0.03 0.03 80 1011.8
20260506172105 66 328 6.0 10.0 0.00 0.03 0.03 82 1011.7
20260506172004 65 333 6.0 10.0 0.00 0.03 0.03 84 1011.7
20260506171905 65 336 6.0 10.0 0.00 0.03 0.03 84 1011.7
20260506171804 65 336 5.0 10.0 0.00 0.03 0.03 84 1011.6
20260506171604 64 337 5.0 10.0 0.00 0.03 0.03 84 1011.6
20260506171505 64 342 5.0 10.0 0.00 0.03 0.03 84 1011.6
20260506171404 64 349 5.0 10.0 0.00 0.03 0.03 84 1011.6
20260506171305 63 356 4.0 10.0 0.00 0.03 0.03 84 1011.7
20260506171105 63 13 4.0 10.0 0.00 0.03 0.03 83 1011.7
20260506171004 63 26 4.0 10.0 0.00 0.03 0.03 83 1011.8
20260506170905 63 50 5.0 11.0 0.00 0.03 0.03 83 1011.7
20260506170805 63 60 5.0 11.0 0.00 0.03 0.03 83 1011.7
20260506170705 63 69 6.0 11.0 0.00 0.03 0.03 85 1011.5
20260506170604 63 83 6.0 12.0 0.00 0.03 0.03 85 1011.4
20260506170404 63 92 6.0 12.0 0.00 0.03 0.03 84 1011.4
20260506170305 62 94 6.0 12.0 0.00 0.03 0.03 84 1011.4
20260506170204 62 94 7.0 12.0 0.00 0.03 0.03 84 1011.4
20260506170105 62 96 7.0 12.0 0.00 0.03 0.03 84 1011.4
20260506170004 62 96 7.0 12.0 0.00 0.03 0.03 85 1011.2
20260506165905 62 92 7.0 12.0 0.00 0.03 0.03 84 1011.2
20260506165804 62 90 6.0 12.0 0.00 0.03 0.03 85 1011.1
20260506165604 62 86 6.0 11.0 0.00 0.03 0.03 86 1011.0
20260506165504 62 89 6.0 12.0 0.00 0.03 0.03 86 1010.9
20260506165405 62 92 6.0 12.0 0.00 0.03 0.03 85 1011.0
20260506165305 62 93 6.0 12.0 0.00 0.03 0.03 86 1011.0
20260506165205 62 95 6.0 12.0 0.00 0.03 0.03 87 1011.0
20260506165005 61 92 6.0 12.0 0.01 0.03 0.03 88 1010.8
20260506164705 60 90 6.0 12.0 0.01 0.03 0.03 87 1011.0
20260506164604 60 90 6.0 12.0 0.01 0.03 0.03 89 1011.1
20260506164505 60 86 6.0 11.0 0.01 0.03 0.03 89 1011.1
20260506164404 60 82 5.0 10.0 0.01 0.03 0.03 89 1011.0
20260506164306 60 76 5.0 10.0 0.01 0.03 0.03 87 1010.9
20260506164204 60 70 5.0 10.0 0.01 0.03 0.03 87 1010.6
20260506164105 60 65 5.0 11.0 0.01 0.03 0.03 87 1010.6
20260506164004 60 63 5.0 11.0 0.01 0.03 0.03 88 1010.6
20260506163804 60 57 5.0 11.0 0.01 0.03 0.03 89 1010.8
20260506163705 59 58 5.0 11.0 0.01 0.03 0.03 89 1010.9
20260506163604 59 59 6.0 13.0 0.01 0.03 0.03 89 1011.0
20260506163504 59 60 6.0 14.0 0.01 0.03 0.03 89 1010.9
20260506163405 59 60 6.0 14.0 0.01 0.03 0.03 89 1010.9
20260506163204 59 64 8.0 14.0 0.01 0.03 0.03 88 1011.0
20260506163105 59 68 8.0 18.0 0.01 0.03 0.03 89 1011.0
20260506163005 59 70 9.0 18.0 0.01 0.03 0.03 89 1011.0
20260506162904 59 73 9.0 18.0 0.01 0.03 0.03 88 1011.0
20260506162805 59 76 9.0 18.0 0.01 0.03 0.03 91 1010.7
20260506162505 59 75 9.0 18.0 0.01 0.03 0.03 92 1010.2
20260506162405 59 74 10.0 18.0 0.01 0.03 0.03 91 1010.3
20260506162306 58 73 9.0 18.0 0.01 0.03 0.03 91 1010.5
20260506162204 58 71 9.0 18.0 0.01 0.03 0.03 91 1010.7
20260506162104 58 71 8.0 16.0 0.01 0.03 0.03 91 1010.7
20260506161804 57 72 8.0 15.0 0.01 0.03 0.03 90 1010.6
20260506161705 57 68 8.0 15.0 0.01 0.03 0.03 90 1010.4
20260506161505 57 62 7.0 15.0 0.01 0.03 0.03 90 1010.8
20260506161404 57 60 7.0 15.0 0.01 0.03 0.03 90 1011.3
20260506161306 57 60 7.0 15.0 0.01 0.03 0.03 90 1011.9
20260506161205 57 60 7.0 15.0 0.01 0.03 0.03 90 1012.1
20260506161004 57 51 7.0 15.0 0.01 0.03 0.03 91 1011.4
20260506160905 57 47 7.0 15.0 0.01 0.03 0.03 91 1010.9
20260506160806 57 45 7.0 15.0 0.01 0.03 0.03 91 1010.7
20260506160704 57 43 7.0 15.0 0.01 0.03 0.03 90 1010.8
20260506160605 57 43 7.0 15.0 0.01 0.03 0.03 90 1011.0
20260506160504 57 41 6.0 15.0 0.01 0.03 0.03 90 1011.1
20260506160405 57 38 6.0 12.0 0.01 0.03 0.03 90 1011.4
20260506160304 57 37 5.0 12.0 0.01 0.03 0.03 91 1011.7
20260506160205 57 34 5.0 12.0 0.01 0.03 0.03 91 1011.9
20260506160104 57 35 5.0 12.0 0.01 0.03 0.03 91 1012.1
20260506160005 57 37 5.0 12.0 0.01 0.03 0.03 91 1012.1
20260506155904 57 39 4.0 12.0 0.01 0.03 0.03 91 1012.1
20260506155704 57 42 5.0 12.0 0.01 0.03 0.03 91 1012.3
20260506155605 57 43 5.0 12.0 0.01 0.03 0.03 91 1012.5
20260506155504 57 44 5.0 13.0 0.01 0.03 0.03 91 1012.9
20260506155404 57 45 4.0 13.0 0.01 0.03 0.03 91 1013.2
20260506155306 57 42 5.0 13.0 0.01 0.03 0.03 91 1013.4
20260506155204 57 37 5.0 13.0 0.00 0.02 0.02 91 1013.4
20260506155105 57 31 5.0 13.0 0.00 0.02 0.02 91 1013.2
20260506155004 57 25 5.0 13.0 0.00 0.02 0.02 91 1012.9
20260506154905 57 22 5.0 13.0 0.00 0.02 0.02 91 1012.6
20260506154804 57 19 5.0 13.0 0.00 0.02 0.02 91 1012.5
20260506154505 57 14 4.0 11.0 0.00 0.02 0.02 91 1012.6
20260506154404 57 13 4.0 11.0 0.00 0.02 0.02 91 1013.0
20260506154305 57 9 4.0 11.0 0.00 0.02 0.02 91 1013.3
20260506154205 57 8 3.0 10.0 0.00 0.02 0.02 91 1013.7
20260506154104 57 6 4.0 13.0 0.00 0.02 0.02 91 1014.0
20260506153904 57 7 5.0 13.0 0.00 0.02 0.02 91 1014.0
20260506153704 57 7 6.0 13.0 0.00 0.02 0.02 91 1013.8
20260506153505 57 9 6.0 13.0 0.00 0.02 0.02 91 1013.6
20260506153404 57 8 6.0 13.0 0.00 0.02 0.02 91 1013.5
20260506153305 57 8 7.0 16.0 0.00 0.02 0.02 91 1013.5
20260506153204 57 7 7.0 16.0 0.00 0.02 0.02 91 1013.4
20260506153105 57 6 7.0 18.0 0.00 0.02 0.02 91 1013.4
20260506153004 57 3 8.0 18.0 0.00 0.02 0.02 92 1013.3
20260506152906 57 3 8.0 18.0 0.00 0.02 0.02 92 1013.2
20260506152805 57 3 8.0 18.0 0.00 0.02 0.02 92 1013.0
20260506152705 57 1 8.0 18.0 0.00 0.02 0.02 92 1012.8
20260506152505 57 357 9.0 18.0 0.00 0.02 0.02 91 1012.4
20260506152404 57 356 9.0 18.0 0.00 0.02 0.02 91 1012.3
20260506152205 57 356 8.0 18.0 0.00 0.02 0.02 92 1012.3
20260506152104 58 356 8.0 16.0 0.00 0.02 0.02 92 1012.5
20260506152004 58 358 8.0 15.0 0.00 0.02 0.02 92 1012.7
20260506151905 58 357 8.0 15.0 0.00 0.02 0.02 92 1012.7
20260506151804 58 357 8.0 17.0 0.00 0.02 0.02 91 1012.8
20260506151705 58 358 8.0 17.0 0.00 0.02 0.02 91 1012.7
20260506151305 58 4 8.0 17.0 0.00 0.02 0.02 91 1012.7
20260506151004 58 359 8.0 17.0 0.00 0.02 0.02 91 1012.9
20260506150904 58 2 8.0 20.0 0.00 0.02 0.02 91 1012.8
20260506150805 58 3 7.0 20.0 0.00 0.02 0.02 91 1012.6
20260506150605 58 3 8.0 20.0 0.00 0.02 0.02 91 1012.5
20260506150504 58 1 8.0 20.0 0.00 0.02 0.02 91 1012.5
20260506150305 58 357 9.0 20.0 0.00 0.02 0.02 91 1012.4
20260506150205 58 356 10.0 21.0 0.00 0.02 0.02 91 1012.4
20260506150104 58 355 10.0 21.0 0.00 0.02 0.02 91 1012.3
20260506150004 58 356 10.0 21.0 0.00 0.02 0.02 91 1012.5
20260506145804 59 356 11.0 21.0 0.00 0.02 0.02 91 1012.5
20260506145705 59 355 11.0 21.0 0.00 0.02 0.02 91 1012.5
20260506145604 59 354 11.0 21.0 0.00 0.02 0.02 91 1012.5
20260506145505 59 355 11.0 21.0 0.00 0.02 0.02 91 1012.4
20260506145406 59 355 10.0 21.0 0.00 0.02 0.02 91 1012.4
20260506145306 59 356 10.0 21.0 0.00 0.02 0.02 91 1012.4
20260506145104 59 358 10.0 20.0 0.00 0.02 0.02 91 1012.2
20260506145004 59 359 9.0 20.0 0.00 0.02 0.02 91 1012.1
20260506144905 59 359 9.0 20.0 0.00 0.02 0.02 91 1012.0
20260506144804 59 2 9.0 19.0 0.00 0.02 0.02 90 1011.8
20260506144705 59 5 9.0 17.0 0.00 0.02 0.02 90 1011.6
20260506144604 59 6 9.0 17.0 0.00 0.02 0.02 90 1011.5
20260506144504 59 7 8.0 17.0 0.00 0.02 0.02 90 1011.5
20260506144404 59 7 8.0 17.0 0.00 0.02 0.02 90 1011.5
20260506144305 60 8 8.0 17.0 0.00 0.02 0.02 90 1011.5
20260506144204 60 7 8.0 17.0 0.00 0.02 0.02 90 1011.4
20260506144105 60 7 8.0 17.0 0.00 0.02 0.02 90 1011.3
20260506143904 60 6 8.0 17.0 0.00 0.02 0.02 90 1011.2
20260506143805 60 4 8.0 17.0 0.00 0.02 0.02 90 1011.3
20260506143705 60 4 8.0 17.0 0.00 0.02 0.02 90 1011.3
20260506143604 60 1 8.0 17.0 0.00 0.02 0.02 90 1011.4
20260506143505 60 1 8.0 17.0 0.00 0.02 0.02 90 1011.5
20260506143404 60 2 8.0 17.0 0.00 0.02 0.02 90 1011.6
20260506143204 60 4 8.0 16.0 0.00 0.02 0.02 90 1011.8
20260506143104 60 5 8.0 16.0 0.00 0.02 0.02 90 1011.8
20260506143005 60 4 9.0 16.0 0.00 0.02 0.02 90 1011.7
20260506142904 60 6 9.0 16.0 0.00 0.02 0.02 90 1011.7
20260506142805 60 7 8.0 16.0 0.00 0.02 0.02 90 1011.5
20260506142705 60 7 9.0 16.0 0.00 0.02 0.02 90 1011.6
20260506142605 60 8 9.0 16.0 0.00 0.02 0.02 90 1011.6
20260506142504 60 8 8.0 16.0 0.00 0.02 0.02 90 1011.5
20260506142405 60 9 8.0 16.0 0.00 0.02 0.02 90 1011.5
20260506142306 60 8 8.0 16.0 0.00 0.02 0.02 90 1011.4
20260506142204 60 8 7.0 16.0 0.00 0.02 0.02 90 1011.3
20260506142104 60 10 7.0 16.0 0.00 0.02 0.02 90 1011.3
20260506142004 60 10 7.0 16.0 0.00 0.02 0.02 90 1011.3
20260506141705 61 8 7.0 16.0 0.00 0.02 0.02 90 1011.2
20260506141604 61 6 7.0 16.0 0.01 0.02 0.02 90 1011.2
20260506141504 61 5 8.0 15.0 0.01 0.02 0.02 90 1011.2
20260506141404 61 5 8.0 18.0 0.01 0.02 0.02 90 1011.2
20260506141304 61 4 8.0 18.0 0.01 0.02 0.02 90 1011.3
20260506141104 61 4 9.0 18.0 0.01 0.02 0.02 90 1011.4
20260506141004 61 3 9.0 18.0 0.01 0.02 0.02 90 1011.4
20260506140904 61 4 9.0 18.0 0.01 0.02 0.02 90 1011.5
20260506140804 61 4 9.0 18.0 0.01 0.02 0.02 90 1011.5
20260506140705 61 3 9.0 18.0 0.01 0.02 0.02 89 1011.6
20260506140505 61 5 8.0 18.0 0.01 0.02 0.02 89 1011.5
20260506140404 61 4 8.0 15.0 0.01 0.02 0.02 89 1011.5
20260506140304 61 4 8.0 15.0 0.01 0.02 0.02 89 1011.3
20260506140104 62 4 7.0 15.0 0.01 0.02 0.02 90 1011.2
20260506140005 62 6 6.0 15.0 0.01 0.02 0.02 90 1011.1
20260506135904 62 7 6.0 15.0 0.01 0.02 0.02 90 1011.0
20260506135604 62 9 6.0 13.0 0.01 0.02 0.02 90 1010.8
20260506135404 62 10 6.0 13.0 0.01 0.02 0.02 90 1010.6
20260506135306 62 9 6.0 13.0 0.01 0.02 0.02 90 1010.5
20260506135204 62 9 6.0 13.0 0.01 0.02 0.02 90 1010.4
20260506135105 62 10 6.0 13.0 0.01 0.02 0.02 90 1010.4
20260506135004 62 9 6.0 13.0 0.01 0.02 0.02 90 1010.3
20260506134905 62 9 6.0 13.0 0.01 0.02 0.02 90 1010.3
20260506134804 62 8 6.0 13.0 0.01 0.02 0.02 90 1010.3
20260506134704 62 8 6.0 13.0 0.01 0.02 0.02 89 1010.2
20260506134604 62 10 6.0 13.0 0.01 0.02 0.02 90 1010.2
20260506134505 62 10 6.0 14.0 0.01 0.02 0.02 90 1010.1
20260506134404 62 6 6.0 14.0 0.01 0.02 0.02 90 1010.1
20260506134305 62 6 7.0 14.0 0.01 0.02 0.02 90 1010.0
20260506134204 62 5 7.0 14.0 0.01 0.02 0.02 90 1010.0
20260506134105 62 5 7.0 14.0 0.01 0.02 0.02 90 1010.0
20260506133905 62 7 7.0 16.0 0.01 0.02 0.02 89 1010.1
20260506133804 62 7 7.0 16.0 0.01 0.02 0.02 89 1010.2
20260506133705 62 7 8.0 16.0 0.01 0.02 0.02 90 1010.2
20260506133605 62 5 8.0 17.0 0.01 0.02 0.02 90 1010.2
20260506133505 62 6 8.0 17.0 0.01 0.02 0.02 90 1010.3
20260506133405 62 7 8.0 17.0 0.01 0.02 0.02 90 1010.3
20260506133305 62 8 7.0 17.0 0.01 0.02 0.02 90 1010.2
20260506133204 62 8 7.0 17.0 0.01 0.02 0.02 90 1010.2
20260506133105 62 8 7.0 17.0 0.01 0.02 0.02 90 1010.1
20260506133004 62 6 7.0 17.0 0.01 0.02 0.02 89 1010.1
20260506132905 62 6 7.0 17.0 0.01 0.02 0.02 89 1010.1
20260506132804 62 6 7.0 17.0 0.01 0.02 0.02 89 1010.1
20260506132705 63 6 7.0 17.0 0.01 0.02 0.02 89 1010.4
20260506132604 63 8 6.0 14.0 0.01 0.02 0.02 89 1010.2
20260506132505 63 7 6.0 14.0 0.01 0.02 0.02 89 1010.2
20260506132404 63 8 6.0 14.0 0.01 0.02 0.02 89 1010.3
20260506132307 63 8 6.0 14.0 0.01 0.02 0.02 89 1010.3
20260506132204 63 7 6.0 14.0 0.01 0.02 0.02 89 1010.3
20260506132104 63 9 6.0 14.0 0.01 0.02 0.02 89 1010.3
20260506132005 63 12 6.0 14.0 0.01 0.02 0.02 89 1010.3
20260506131904 63 9 6.0 14.0 0.01 0.02 0.02 89 1010.2
20260506131804 63 9 6.0 14.0 0.01 0.02 0.02 89 1010.2
20260506131706 63 9 6.0 14.0 0.01 0.02 0.02 89 1010.2
20260506131604 63 9 7.0 14.0 0.00 0.01 0.01 89 1010.2
20260506131504 63 10 7.0 14.0 0.00 0.01 0.01 88 1010.2
20260506131404 63 9 7.0 14.0 0.00 0.01 0.01 89 1010.2
20260506131305 63 9 7.0 14.0 0.00 0.01 0.01 89 1010.1
20260506131204 63 9 7.0 14.0 0.00 0.01 0.01 89 1010.1
20260506131104 63 9 7.0 14.0 0.00 0.01 0.01 89 1010.1
20260506131004 63 6 7.0 14.0 0.00 0.01 0.01 89 1010.0
20260506130904 63 6 7.0 14.0 0.00 0.01 0.01 89 1010.0
20260506130804 63 5 7.0 14.0 0.00 0.01 0.01 89 1010.0
20260506130604 63 5 7.0 15.0 0.00 0.01 0.01 89 1009.8
20260506130504 63 4 7.0 15.0 0.00 0.01 0.01 89 1009.8
20260506130404 63 4 7.0 15.0 0.00 0.01 0.01 89 1009.8
20260506130104 64 5 7.0 15.0 0.00 0.01 0.01 89 1009.7
20260506125904 64 8 7.0 15.0 0.00 0.01 0.01 89 1009.7
20260506125805 64 10 7.0 15.0 0.00 0.01 0.01 89 1009.7
20260506125705 64 10 7.0 15.0 0.00 0.01 0.01 89 1009.7
20260506125504 64 10 7.0 14.0 0.00 0.01 0.01 89 1009.7
20260506125404 64 8 7.0 14.0 0.00 0.01 0.01 89 1009.6
20260506125306 64 9 7.0 14.0 0.00 0.01 0.01 89 1009.6
20260506125205 64 11 7.0 14.0 0.00 0.01 0.01 89 1009.5
20260506125104 64 11 6.0 14.0 0.00 0.01 0.01 89 1009.4
20260506125005 64 11 6.0 14.0 0.00 0.01 0.01 89 1009.4
20260506124904 64 10 6.0 14.0 0.00 0.01 0.01 90 1009.4
20260506124804 64 10 7.0 14.0 0.00 0.01 0.01 90 1009.4
20260506124704 64 9 7.0 14.0 0.00 0.01 0.01 90 1009.4
20260506124604 64 7 7.0 14.0 0.00 0.01 0.01 90 1009.4
20260506124505 64 8 7.0 14.0 0.00 0.01 0.01 90 1009.4
20260506124404 64 8 7.0 14.0 0.00 0.01 0.01 90 1009.4
20260506124305 64 6 6.0 12.0 0.00 0.01 0.01 90 1009.3
20260506124204 64 5 6.0 12.0 0.00 0.01 0.01 90 1009.3
20260506124105 64 4 6.0 12.0 0.00 0.01 0.01 90 1009.3
20260506124004 64 3 6.0 12.0 0.00 0.01 0.01 90 1009.4
20260506123904 64 2 6.0 12.0 0.00 0.01 0.01 90 1009.3
20260506123804 64 359 6.0 12.0 0.00 0.01 0.01 91 1009.3
20260506123704 64 359 6.0 12.0 0.00 0.01 0.01 91 1009.3
20260506123404 64 354 6.0 12.0 0.00 0.01 0.01 90 1009.3
20260506123304 64 353 6.0 12.0 0.00 0.01 0.01 90 1009.3
20260506123204 64 352 6.0 12.0 0.00 0.01 0.01 91 1009.3
20260506123104 64 351 6.0 12.0 0.00 0.01 0.01 91 1009.2
20260506123004 65 350 6.0 12.0 0.00 0.01 0.01 90 1009.2
20260506122904 65 350 6.0 12.0 0.00 0.01 0.01 91 1009.2
20260506122804 65 350 6.0 11.0 0.00 0.01 0.01 91 1009.2
20260506122604 65 352 6.0 12.0 0.00 0.01 0.01 91 1009.2
20260506122306 65 353 6.0 12.0 0.00 0.01 0.01 91 1009.2
20260506122204 65 351 6.0 12.0 0.00 0.01 0.01 91 1009.1
20260506122104 65 347 6.0 12.0 0.00 0.01 0.01 91 1009.0
20260506122004 65 346 6.0 12.0 0.00 0.01 0.01 91 1009.1
20260506121804 65 343 6.0 12.0 0.00 0.01 0.01 91 1009.0
20260506121704 65 339 6.0 12.0 0.00 0.01 0.01 91 1009.0
20260506121604 65 336 6.0 12.0 0.00 0.01 0.01 91 1009.0
20260506121505 65 336 6.0 12.0 0.00 0.01 0.01 91 1009.0
20260506121404 65 336 5.0 12.0 0.00 0.01 0.01 91 1008.9
20260506121305 65 335 5.0 12.0 0.00 0.01 0.01 91 1008.9
20260506121104 65 337 5.0 11.0 0.00 0.01 0.01 91 1008.8
20260506121004 66 337 5.0 11.0 0.00 0.01 0.01 91 1008.8
20260506120704 66 342 5.0 11.0 0.00 0.01 0.01 91 1008.8
20260506120603 66 344 5.0 11.0 0.00 0.01 0.01 91 1008.8
20260506120504 66 344 5.0 11.0 0.00 0.01 0.01 92 1008.8
20260506120404 66 347 5.0 10.0 0.00 0.01 0.01 92 1008.7
20260506120304 66 349 5.0 10.0 0.00 0.01 0.01 92 1008.7
20260506120204 66 350 5.0 10.0 0.00 0.01 0.01 92 1008.7
20260506120104 66 354 5.0 10.0 0.00 0.01 0.01 92 1008.7
20260506120006 66 356 5.0 10.0 0.00 0.01 0.01 92 1008.7
20260506115904 66 357 5.0 10.0 0.00 0.01 0.01 91 1008.6
20260506115804 66 2 5.0 9.0 0.00 0.01 0.01 91 1008.7
20260506115705 66 2 5.0 9.0 0.00 0.01 0.01 91 1008.6
20260506115505 66 3 5.0 9.0 0.00 0.01 0.01 91 1008.6
20260506115404 66 4 5.0 9.0 0.00 0.01 0.01 91 1008.6
20260506115307 66 5 5.0 9.0 0.00 0.01 0.01 91 1008.6
20260506115204 66 7 5.0 9.0 0.00 0.01 0.01 91 1008.5
20260506114905 67 7 5.0 11.0 0.00 0.01 0.01 91 1008.5
20260506114804 67 6 5.0 11.0 0.00 0.01 0.01 91 1008.5
20260506114705 67 6 5.0 11.0 0.00 0.01 0.01 91 1008.5
20260506114604 67 6 5.0 11.0 0.00 0.01 0.01 91 1008.5
20260506114504 67 4 6.0 12.0 0.00 0.01 0.01 91 1008.5
20260506114405 68 4 5.0 12.0 0.00 0.01 0.01 91 1008.6
20260506114304 68 359 6.0 12.0 0.00 0.01 0.01 91 1008.6
20260506114204 68 355 6.0 12.0 0.00 0.01 0.01 91 1008.6
20260506114105 68 351 5.0 12.0 0.00 0.01 0.01 91 1008.6
20260506114005 68 349 5.0 12.0 0.00 0.01 0.01 91 1008.6
20260506113907 68 344 5.0 12.0 0.00 0.01 0.01 91 1008.6
20260506113804 68 340 6.0 12.0 0.00 0.01 0.01 91 1008.5
20260506113704 68 337 6.0 12.0 0.00 0.01 0.01 91 1008.5
20260506113604 69 334 6.0 12.0 0.00 0.01 0.01 91 1008.5
20260506113504 69 331 5.0 11.0 0.00 0.01 0.01 91 1008.6
20260506113404 69 327 5.0 11.0 0.00 0.01 0.01 90 1008.5
20260506113306 70 327 4.0 11.0 0.00 0.01 0.01 90 1008.5
20260506113204 70 326 3.0 11.0 0.00 0.01 0.01 90 1008.5
20260506113104 70 326 3.0 11.0 0.00 0.01 0.01 90 1008.5
20260506113004 71 325 2.0 11.0 0.00 0.01 0.01 90 1008.6
20260506112904 72 328 2.0 11.0 0.00 0.01 0.01 91 1008.7
20260506112804 72 327 2.0 11.0 0.00 0.01 0.01 91 1008.6
20260506112704 73 324 0.0 8.0 0.00 0.01 0.01 93 1008.6
20260506112603 73 326 0.0 7.0 0.01 0.01 0.01 93 1008.5
20260506112405 73 0 0.0 0.0 0.01 0.01 0.01 93 1008.5
20260506112306 73 0 0.0 0.0 0.01 0.01 0.01 93 1008.5
20260506112104 73 0 0.0 0.0 0.01 0.01 0.01 93 1008.5
20260506112005 73 0 0.0 0.0 0.01 0.01 0.01 93 1008.5
20260506111904 73 0 0.0 0.0 0.01 0.01 0.01 93 1008.5
20260506111704 73 0 0.0 0.0 0.01 0.01 0.01 93 1008.5
20260506111604 73 0 0.0 0.0 0.01 0.01 0.01 93 1008.5
20260506111504 73 0 0.0 0.0 0.01 0.01 0.01 93 1008.5
20260506111404 73 0 0.0 0.0 0.01 0.01 0.01 93 1008.4
20260506111305 73 0 0.0 0.0 0.01 0.01 0.01 93 1008.4
20260506111204 73 0 0.0 0.0 0.01 0.01 0.01 93 1008.4
20260506111004 73 0 0.0 0.0 0.01 0.01 0.01 93 1008.4
20260506110905 73 0 0.0 0.0 0.01 0.01 0.01 93 1008.4
20260506110604 73 0 0.0 0.0 0.01 0.01 0.01 93 1008.4
20260506110504 73 0 0.0 0.0 0.01 0.01 0.01 93 1008.4
20260506110404 73 0 0.0 0.0 0.01 0.01 0.01 93 1008.3
20260506110304 73 0 0.0 0.0 0.01 0.01 0.01 93 1008.3
20260506110204 73 0 0.0 0.0 0.01 0.01 0.01 93 1008.3
20260506110104 73 0 0.0 0.0 0.01 0.01 0.01 93 1008.3
20260506105905 73 0 0.0 0.0 0.01 0.01 0.01 93 1008.3
20260506105804 73 0 0.0 0.0 0.01 0.01 0.01 92 1008.3
20260506105705 73 0 0.0 0.0 0.01 0.01 0.01 92 1008.3
20260506105604 73 0 0.0 0.0 0.01 0.01 0.01 92 1008.3
20260506105505 73 0 0.0 0.0 0.01 0.01 0.01 92 1008.3
20260506105404 73 0 0.0 0.0 0.01 0.01 0.01 92 1008.3
20260506105305 73 0 0.0 0.0 0.01 0.01 0.01 92 1008.3
20260506105204 73 0 0.0 0.0 0.01 0.01 0.01 92 1008.3
20260506105104 73 0 0.0 0.0 0.01 0.01 0.01 92 1008.2
20260506105004 73 0 0.0 0.0 0.01 0.01 0.01 92 1008.3
20260506104804 73 0 0.0 0.0 0.01 0.01 0.01 92 1008.3
20260506104704 73 0 0.0 0.0 0.01 0.01 0.01 92 1008.3
20260506104604 73 0 0.0 0.0 0.01 0.01 0.01 92 1008.3
20260506104504 73 0 0.0 0.0 0.01 0.01 0.01 92 1008.2
20260506104304 73 0 0.0 0.0 0.01 0.01 0.01 92 1008.2
20260506104205 73 0 0.0 0.0 0.01 0.01 0.01 92 1008.2
20260506104004 73 0 0.0 0.0 0.01 0.01 0.01 92 1008.1
20260506103704 73 0 0.0 0.0 0.01 0.01 0.01 92 1008.1
20260506103604 73 0 0.0 0.0 0.01 0.01 0.01 92 1008.1
20260506103504 73 0 0.0 0.0 0.01 0.01 0.01 92 1008.1
20260506103403 73 0 0.0 0.0 0.01 0.01 0.01 92 1008.1
20260506103304 73 0 0.0 0.0 0.01 0.01 0.01 92 1008.1
20260506103204 73 0 0.0 0.0 0.01 0.01 0.01 92 1008.1
20260506103104 73 0 0.0 0.0 0.01 0.01 0.01 92 1008.1
20260506103004 73 0 0.0 0.0 0.01 0.01 0.01 92 1008.0
20260506102904 73 0 0.0 0.0 0.01 0.01 0.01 92 1008.1
20260506102705 73 0 0.0 0.0 0.01 0.01 0.01 92 1008.1
20260506102604 73 0 0.0 0.0 0.00 0.00 0.00 92 1008.1
20260506102504 73 0 0.0 0.0 0.00 0.00 0.00 92 1008.0
20260506102403 73 0 0.0 0.0 0.00 0.00 0.00 92 1008.0
20260506102103 73 0 0.0 0.0 0.00 0.00 0.00 92 1007.9
20260506102004 73 0 0.0 0.0 0.00 0.00 0.00 92 1007.9
20260506101905 73 0 0.0 0.0 0.00 0.00 0.00 91 1007.9
20260506101804 73 0 0.0 0.0 0.00 0.00 0.00 91 1007.9
20260506101704 74 0 0.0 0.0 0.00 0.00 0.00 91 1007.9
20260506101604 74 0 0.0 0.0 0.00 0.00 0.00 91 1007.9
20260506101504 74 0 0.0 0.0 0.00 0.00 0.00 91 1008.0
20260506101404 74 0 0.0 0.0 0.00 0.00 0.00 91 1007.9
20260506101203 74 0 0.0 0.0 0.00 0.00 0.00 91 1008.0
20260506101104 74 0 0.0 0.0 0.00 0.00 0.00 91 1007.9
20260506101004 74 0 0.0 0.0 0.00 0.00 0.00 91 1007.9
20260506100904 74 0 0.0 0.0 0.00 0.00 0.00 91 1007.9
20260506100804 74 0 0.0 0.0 0.00 0.00 0.00 91 1007.9
20260506100705 74 0 0.0 0.0 0.00 0.00 0.00 91 1007.9
20260506100604 74 0 0.0 0.0 0.00 0.00 0.00 91 1007.9
20260506100404 74 0 0.0 0.0 0.00 0.00 0.00 91 1007.9
20260506100305 74 0 0.0 0.0 0.00 0.00 0.00 91 1007.9
20260506100204 74 0 0.0 0.0 0.00 0.00 0.00 91 1007.8
20260506100104 74 0 0.0 0.0 0.00 0.00 0.00 91 1007.8
20260506095904 74 0 0.0 0.0 0.00 0.00 0.00 91 1007.7
20260506095804 74 0 0.0 0.0 0.00 0.00 0.00 91 1007.7
20260506095705 74 0 0.0 0.0 0.00 0.00 0.00 90 1007.7
20260506095504 74 0 0.0 0.0 0.00 0.00 0.00 90 1007.6
20260506095404 74 0 0.0 0.0 0.00 0.00 0.00 90 1007.7
20260506095306 74 0 0.0 0.0 0.00 0.00 0.00 90 1007.7
20260506095204 74 178 0.0 2.0 0.00 0.00 0.00 90 1007.7
20260506095104 74 178 0.0 2.0 0.00 0.00 0.00 90 1007.7
20260506095004 74 178 0.0 2.0 0.00 0.00 0.00 90 1007.7
20260506094905 74 178 1.0 2.0 0.00 0.00 0.00 90 1007.6
20260506094804 74 178 1.0 3.0 0.00 0.00 0.00 90 1007.6
20260506094703 74 178 1.0 3.0 0.00 0.00 0.00 90 1007.6
20260506094604 74 178 1.0 4.0 0.00 0.00 0.00 90 1007.6
20260506094404 74 188 2.0 5.0 0.00 0.00 0.00 89 1007.6
20260506094304 74 190 2.0 5.0 0.00 0.00 0.00 89 1007.5
20260506094203 74 192 2.0 5.0 0.00 0.00 0.00 89 1007.5
20260506094104 74 193 2.0 5.0 0.00 0.00 0.00 89 1007.5
20260506093904 74 197 3.0 5.0 0.00 0.00 0.00 89 1007.5
20260506093705 74 201 3.0 5.0 0.00 0.00 0.00 89 1007.5
20260506093604 74 203 3.0 7.0 0.00 0.00 0.00 89 1007.6
20260506093504 74 203 3.0 7.0 0.00 0.00 0.00 88 1007.5
20260506093404 74 202 3.0 7.0 0.00 0.00 0.00 88 1007.6
20260506093304 74 202 3.0 7.0 0.00 0.00 0.00 88 1007.6
20260506093204 74 203 3.0 7.0 0.00 0.00 0.00 88 1007.6
20260506093104 74 203 3.0 7.0 0.00 0.00 0.00 88 1007.6
20260506093004 74 201 3.0 7.0 0.00 0.00 0.00 88 1007.6
20260506092904 74 197 3.0 7.0 0.00 0.00 0.00 88 1007.5
20260506092804 74 194 3.0 7.0 0.00 0.00 0.00 88 1007.5
20260506092704 74 190 3.0 7.0 0.00 0.00 0.00 88 1007.5
20260506092605 74 188 3.0 6.0 0.00 0.00 0.00 88 1007.5
20260506092504 74 186 3.0 6.0 0.00 0.00 0.00 88 1007.5
20260506092404 74 183 3.0 6.0 0.00 0.00 0.00 88 1007.5
20260506092306 74 178 3.0 6.0 0.00 0.00 0.00 88 1007.5
20260506092204 74 173 3.0 6.0 0.00 0.00 0.00 88 1007.4
20260506092104 75 168 3.0 6.0 0.00 0.00 0.00 87 1007.5
20260506092004 74 166 3.0 6.0 0.00 0.00 0.00 87 1007.5
20260506091904 75 165 2.0 6.0 0.00 0.00 0.00 87 1007.4
20260506091704 75 164 2.0 4.0 0.00 0.00 0.00 87 1007.4
20260506091604 75 161 2.0 4.0 0.00 0.00 0.00 87 1007.4
20260506091504 75 157 2.0 4.0 0.00 0.00 0.00 87 1007.4
20260506091204 75 156 1.0 4.0 0.00 0.00 0.00 87 1007.3
20260506091104 75 158 1.0 3.0 0.00 0.00 0.00 87 1007.3
20260506091004 75 157 1.0 3.0 0.00 0.00 0.00 87 1007.3
20260506090904 75 156 2.0 3.0 0.00 0.00 0.00 87 1007.3
20260506090704 75 156 2.0 4.0 0.00 0.00 0.00 87 1007.3
20260506090505 75 158 2.0 4.0 0.00 0.00 0.00 87 1007.2
20260506090404 75 160 3.0 4.0 0.00 0.00 0.00 87 1007.2
20260506090305 75 166 3.0 5.0 0.00 0.00 0.00 87 1007.3
20260506090104 75 171 3.0 6.0 0.00 0.00 0.00 87 1007.3
20260506090004 75 169 3.0 7.0 0.00 0.00 0.00 87 1007.3
20260506085904 75 171 3.0 7.0 0.00 0.00 0.00 87 1007.3
20260506085803 75 174 3.0 7.0 0.00 0.00 0.00 86 1007.3
20260506085704 75 177 3.0 7.0 0.00 0.00 0.00 86 1007.3
20260506085604 75 178 4.0 7.0 0.00 0.00 0.00 86 1007.3
20260506085504 75 181 4.0 7.0 0.00 0.00 0.00 86 1007.3
20260506085404 75 179 4.0 7.0 0.00 0.00 0.00 86 1007.3
20260506085204 75 176 4.0 8.0 0.00 0.00 0.00 86 1007.3
20260506085104 75 176 4.0 8.0 0.00 0.00 0.00 86 1007.2
20260506084904 75 183 4.0 8.0 0.00 0.00 0.00 86 1007.2
20260506084704 75 177 4.0 8.0 0.00 0.00 0.00 86 1007.2
20260506084604 75 176 4.0 8.0 0.00 0.00 0.00 86 1007.2
20260506084504 75 175 4.0 8.0 0.00 0.00 0.00 86 1007.2
20260506084404 75 175 4.0 8.0 0.00 0.00 0.00 86 1007.2
20260506084304 75 176 4.0 9.0 0.00 0.00 0.00 86 1007.2
20260506084204 75 176 5.0 9.0 0.00 0.00 0.00 86 1007.3
20260506084104 75 176 5.0 10.0 0.00 0.00 0.00 86 1007.3
20260506083904 75 174 5.0 10.0 0.00 0.00 0.00 86 1007.2
20260506083703 75 175 6.0 10.0 0.00 0.00 0.00 86 1007.3
20260506083604 75 175 6.0 10.0 0.00 0.00 0.00 86 1007.3
20260506083505 75 176 6.0 10.0 0.00 0.00 0.00 86 1007.2
20260506083404 75 175 6.0 12.0 0.00 0.00 0.00 86 1007.3
20260506083104 75 176 7.0 12.0 0.00 0.00 0.00 86 1007.1
20260506083004 75 177 7.0 12.0 0.00 0.00 0.00 86 1007.1
20260506082905 75 178 7.0 12.0 0.00 0.00 0.00 86 1007.2
20260506082804 75 178 7.0 12.0 0.00 0.00 0.00 86 1007.2
20260506082705 75 179 7.0 12.0 0.00 0.00 0.00 86 1007.2
20260506082603 75 181 7.0 12.0 0.00 0.00 0.00 86 1007.3
20260506082404 75 183 7.0 12.0 0.00 0.00 0.00 86 1007.2
20260506082305 75 183 7.0 13.0 0.00 0.00 0.00 86 1007.2
20260506082204 75 184 7.0 13.0 0.00 0.00 0.00 86 1007.1
20260506082104 75 185 7.0 13.0 0.00 0.00 0.00 86 1007.1
20260506082004 75 184 7.0 13.0 0.00 0.00 0.00 86 1007.1
20260506081904 75 184 7.0 13.0 0.00 0.00 0.00 85 1007.1
20260506081804 75 184 7.0 13.0 0.00 0.00 0.00 85 1007.0
20260506081704 75 187 7.0 13.0 0.00 0.00 0.00 85 1007.1
20260506081604 75 188 7.0 13.0 0.00 0.00 0.00 85 1007.0
20260506081404 75 189 7.0 13.0 0.00 0.00 0.00 85 1007.0
20260506081204 75 192 6.0 12.0 0.00 0.00 0.00 85 1007.0
20260506081104 75 191 6.0 12.0 0.00 0.00 0.00 85 1007.0
20260506080904 75 195 6.0 12.0 0.00 0.00 0.00 85 1007.0
20260506080804 75 195 6.0 12.0 0.00 0.00 0.00 85 1007.1
20260506080704 75 194 6.0 11.0 0.00 0.00 0.00 85 1007.1
20260506080603 75 194 6.0 11.0 0.00 0.00 0.00 85 1007.1
20260506080504 75 193 6.0 11.0 0.00 0.00 0.00 85 1007.1
20260506080404 75 193 6.0 11.0 0.00 0.00 0.00 85 1007.2
20260506080304 75 191 6.0 11.0 0.00 0.00 0.00 85 1007.2
20260506080203 75 190 6.0 11.0 0.00 0.00 0.00 85 1007.2
20260506080104 75 189 6.0 11.0 0.00 0.00 0.00 85 1007.2
20260506073504 76 184 6.0 14.0 0.00 0.00 0.00 85 1007.4
20260506073404 76 185 6.0 14.0 0.00 0.00 0.00 85 1007.4
20260506073304 76 187 6.0 11.0 0.00 0.00 0.00 85 1007.4
20260506073204 76 190 6.0 11.0 0.00 0.00 0.00 85 1007.4
20260506073103 76 191 6.0 11.0 0.00 0.00 0.00 85 1007.5
20260506073004 76 190 5.0 11.0 0.00 0.00 0.00 85 1007.5
20260506072903 76 192 5.0 11.0 0.00 0.00 0.00 85 1007.5
20260506072804 76 192 5.0 11.0 0.00 0.00 0.00 85 1007.5
20260506072704 76 190 5.0 11.0 0.00 0.00 0.00 85 1007.5
20260506072604 76 188 4.0 11.0 0.00 0.00 0.00 85 1007.5
20260506072504 76 187 4.0 10.0 0.00 0.00 0.00 86 1007.5
20260506072203 75 178 3.0 9.0 0.00 0.00 0.00 86 1007.6
20260506072104 75 172 3.0 9.0 0.00 0.00 0.00 86 1007.6
20260506072003 75 168 2.0 9.0 0.00 0.00 0.00 86 1007.5
20260506071904 75 162 3.0 6.0 0.00 0.00 0.00 86 1007.6
20260506071803 75 160 3.0 7.0 0.00 0.00 0.00 86 1007.6
20260506071704 75 162 3.0 7.0 0.00 0.00 0.00 86 1007.6
20260506071604 75 163 3.0 7.0 0.00 0.00 0.00 86 1007.6
20260506071504 76 163 3.0 8.0 0.00 0.00 0.00 86 1007.6
20260506071403 76 164 3.0 8.0 0.00 0.00 0.00 86 1007.6
20260506071204 76 166 4.0 8.0 0.00 0.00 0.00 86 1007.6
20260506071104 75 168 4.0 8.0 0.00 0.00 0.00 86 1007.6
20260506071004 76 169 4.0 8.0 0.00 0.00 0.00 86 1007.6
20260506070903 75 170 4.0 8.0 0.00 0.00 0.00 86 1007.6
20260506070804 76 171 4.0 8.0 0.00 0.00 0.00 86 1007.6
20260506070704 76 170 4.0 8.0 0.00 0.00 0.00 86 1007.6
20260506070604 76 170 4.0 8.0 0.00 0.00 0.00 86 1007.6
20260506070504 75 169 4.0 8.0 0.00 0.00 0.00 86 1007.6
20260506070404 76 169 4.0 8.0 0.00 0.00 0.00 86 1007.6
20260506070303 76 169 4.0 8.0 0.00 0.00 0.00 86 1007.6
20260506070204 76 171 4.0 8.0 0.00 0.00 0.00 86 1007.6
20260506070104 76 170 4.0 8.0 0.00 0.00 0.00 86 1007.6
20260506062504 76 190 8.0 14.0 0.00 0.00 0.00 86 1007.2
20260506062403 76 190 8.0 14.0 0.00 0.00 0.00 86 1007.2
20260506062305 76 188 8.0 14.0 0.00 0.00 0.00 86 1007.2
20260506062204 76 187 8.0 14.0 0.00 0.00 0.00 86 1007.2
20260506062103 76 186 8.0 14.0 0.00 0.00 0.00 86 1007.2
20260506062004 76 185 8.0 14.0 0.00 0.00 0.00 86 1007.2
20260506061803 76 179 8.0 14.0 0.00 0.00 0.00 86 1007.2
20260506061704 76 178 8.0 14.0 0.00 0.00 0.00 86 1007.3
20260506061504 76 178 7.0 14.0 0.00 0.00 0.00 86 1007.3
20260506061403 76 178 7.0 13.0 0.00 0.00 0.00 86 1007.3
20260506061303 76 177 7.0 13.0 0.00 0.00 0.00 86 1007.4
20260506061204 76 178 7.0 12.0 0.00 0.00 0.00 86 1007.4
20260506061103 75 176 6.0 12.0 0.00 0.00 0.00 86 1007.4
20260506061004 75 175 6.0 12.0 0.00 0.00 0.00 86 1007.5
20260506060904 75 175 6.0 12.0 0.00 0.00 0.00 86 1007.4
20260506060804 75 177 6.0 12.0 0.00 0.00 0.00 87 1007.4
20260506060703 75 179 6.0 12.0 0.00 0.00 0.00 87 1007.4
20260506060604 75 179 7.0 12.0 0.00 0.00 0.00 87 1007.3
20260506060504 75 175 7.0 14.0 0.00 0.00 0.00 87 1007.3
20260506060404 75 175 7.0 14.0 0.00 0.00 0.00 87 1007.1
20260506060304 75 175 7.0 14.0 0.00 0.00 0.00 87 1007.1
20260506060104 75 176 7.0 14.0 0.00 0.00 0.00 87 1006.9